Location: Pasarilla del Rebollar
(40.6790°N, 5.0062°W)
Time: 11:28:33
(UTC+00:00)

SL-14 R/B - Pass Details

Date: 22 April 2026
Orbit: 495 x 526 km, 82.4° (Epoch: 15 May)

Event Time Altitude Azimuth Distance (km) Brightness Sun altitude
Exits shadow 04:38:37 10° 213° (SSW) 1,756 5.4 -10.1°
Maximum altitude 04:42:14 37° 282° (WNW) 824 3.8 -9.5°
Drops below altitude 10° 04:45:53 10° 351° (N) 1,775 6.1 -8.9°
Sets 04:48:09 0° 0° (N) 2,667 7.2 -8.5°
